weather.gov     
National Weather Service

Terminal Aerodrome Forecast
NWS Homepage
This page is being discontinued on March 12, 2014.
The same data is available at this site. Please update your bookmarks.
Thank you, and we apologize for the inconvenience.
Please send an email to SR-SRH.Webmaster@noaa.gov with any concerns.


Current Version
Previous Version:    01  02  03  04  05  06  07  08  09  10  11  12  13  14  15  16  17  18  19  20  21  22  23  24  25  26  27  28  29  30  
   31  
[Printable]
190
FTAK31 PAJN 212300
TAFASI
TAF
PASI 212326Z 2200/2224 12013G23KT P6SM -SHRA VCTS SCT040 BKN060CB
      WS020/13040KT
     FM220400 14020G32KT 6SM -SHRA BR VCTS SCT012 OVC030CB
      WS020/14045KT
     FM221100 14014G23KT 6SM -SHRA BR SCT012 OVC030 WS020/14045KT=


U.S. Dept. of Commerce
NOAA National Weather Service
1325 East West Highway
Silver Spring, MD 20910
E-mail: w-nws.webmaster@noaa.gov
Page last modified: May 16, 2007
NATIONAL WEATHER SERVICE: for Safety, for Work, for Fun - FOR LIFE